Terre Haute, IN

10:58 PM EDT on October 20, 2019 (GMT -0400)
Terre Haute International-Hulman

Weather History for KHUF - August, 2019

Change the Weather History Date:

Thursday, August 22, 2019

  Actual Average Record
Temperature  
Mean Temperature 73 °F 72 °F  
Max Temperature 78 °F 84 °F 97 °F (1955)
Min Temperature 68 °F 62 °F 45 °F (1956)
Degree Days  
Heating Degree Days 0 0  
Month to date heating degree days 0 0  
Since 1 June heating degree days 8 14  
Since 1 July heating degree days 0 1  
Cooling Degree Days 8 8  
Month to date cooling degree days 226 186  
Year to date cooling degree days 974 818  
Since 1 June cooling degree days 846 732  
Growing Degree Days 24 (Base 50)    
Moisture  
Dew Point 70 °F    
Average Humidity 88    
Maximum Humidity 100    
Minimum Humidity 76    
Precipitation  
Precipitation 0.31 in 0.12 in 1.40 in (1977)
Month to date precipitation 2.73 2.30  
Year to date precipitation 35.92 29.97  
Sea Level Pressure  
Sea Level Pressure 29.98 in    
Wind  
Wind Speed 3 mph (SW)    
Max Wind Speed 18 mph    
Max Gust Speed 27 mph    
Visibility 10 miles    
Events Rain , Thunderstorm    
T = Trace of Precipitation, MM = Missing Value Source: NWS Daily Summary

Daily Weather History Graph

Daily Weather History Graph

Search for Another Location

Airport or City:

Astronomy

Aug. 22, 2019 Rise Set
Actual Time 7:08 AM EDT 8:35 PM EDT
Civil Twilight 6:39 AM EDT 9:03 PM EDT
Nautical Twilight 6:06 AM EDT 9:37 PM EDT
Astronomical Twilight 5:30 AM EDT 10:13 PM EDT
Moon No Moon Rise 1:41 PM EDT (8/22)
Length of Visible Light 14h 23m
Length of Day
13h 27m
Waning Gibbous, 60% of the Moon is Illuminated
Aug 22
Waning Gibbous
Aug 23
Last Quarter
Aug 30
New
Sep 5
First Quarter
Sep 14
Full

Hourly Weather History & Observations

Time (EDT) Temp. Dew Point Humidity Pressure Visibility Wind Dir Wind Speed Gust Speed Precip Events Conditions
12:53 AM 73.9 °F 72.0 °F 93% 29.96 in 7.0 mi NNW 4.6 mph - N/A   Partly Cloudy
1:53 AM 75.0 °F 72.0 °F 90% 29.97 in 8.0 mi South 4.6 mph - 0.02 in Rain Light Rain
2:35 AM 73.9 °F 71.1 °F 91% 30.00 in 7.0 mi SSW 18.4 mph 24.2 mph 0.06 in Rain , Thunderstorm Light Rain
2:53 AM 72.0 °F 70.0 °F 93% 29.98 in 8.0 mi SW 18.4 mph 26.5 mph 0.09 in Rain , Thunderstorm Rain
3:09 AM 72.0 °F 68.0 °F 87% 29.99 in 10.0 mi SW 13.8 mph 25.3 mph 0.03 in Rain Light Rain
3:53 AM 70.0 °F 68.0 °F 93% 29.99 in 8.0 mi Calm Calm - 0.10 in Rain Light Rain
4:13 AM 70.0 °F 68.0 °F 93% 30.00 in 7.0 mi Calm Calm - 0.02 in Rain , Thunderstorm Light Rain
4:53 AM 70.0 °F 68.0 °F 93% 29.95 in 10.0 mi Calm Calm - 0.04 in Rain Light Rain
5:11 AM 70.0 °F 68.0 °F 93% 29.97 in 10.0 mi Calm Calm - 0.00 in   Mostly Cloudy
5:25 AM 70.0 °F 69.1 °F 97% 29.96 in 10.0 mi Calm Calm - 0.00 in   Overcast
5:37 AM 70.0 °F 68.0 °F 93% 29.96 in 10.0 mi North 3.5 mph - 0.00 in   Mostly Cloudy
5:53 AM 70.0 °F 68.0 °F 93% 29.94 in 10.0 mi Calm Calm - 0.00 in   Mostly Cloudy
6:17 AM 70.0 °F 69.1 °F 97% 29.96 in 10.0 mi SSE 3.5 mph - 0.01 in   Mostly Cloudy
6:53 AM 70.0 °F 68.0 °F 93% 29.95 in 10.0 mi SSE 4.6 mph - 0.01 in   Overcast
7:53 AM 70.0 °F 69.1 °F 97% 29.96 in 10.0 mi SSW 6.9 mph - 0.01 in   Overcast
8:34 AM 71.1 °F 69.1 °F 93% 29.97 in 10.0 mi SW 4.6 mph - N/A   Overcast
8:53 AM 71.1 °F 69.1 °F 93% 29.96 in 10.0 mi SSW 4.6 mph - N/A   Mostly Cloudy
9:01 AM 72.0 °F 69.1 °F 91% 29.97 in 10.0 mi SW 5.8 mph - N/A   Mostly Cloudy
9:24 AM 72.0 °F 69.1 °F 91% 29.98 in 10.0 mi WSW 6.9 mph - N/A   Overcast
9:53 AM 72.0 °F 70.0 °F 93% 29.98 in 10.0 mi WSW 8.1 mph - N/A   Overcast
10:53 AM 72.0 °F 70.0 °F 93% 30.00 in 10.0 mi SW 6.9 mph - N/A   Overcast
11:22 AM 73.0 °F 70.0 °F 90% 30.01 in 10.0 mi SW 5.8 mph - N/A   Overcast
11:53 AM 73.0 °F 70.0 °F 90% 30.00 in 8.0 mi WSW 4.6 mph - N/A   Overcast
12:11 PM 73.0 °F 71.1 °F 93% 30.01 in 10.0 mi South 4.6 mph - 0.04 in Rain Light Rain
12:20 PM 73.9 °F 71.1 °F 91% 30.01 in 10.0 mi South 3.5 mph - 0.04 in Rain Light Rain
12:33 PM 73.9 °F 70.0 °F 87% 30.01 in 10.0 mi SW 5.8 mph - 0.04 in   Overcast
12:53 PM 73.9 °F 71.1 °F 91% 30.01 in 10.0 mi SSW 4.6 mph - 0.04 in Rain Light Rain
1:20 PM 73.9 °F 71.1 °F 91% 30.02 in 10.0 mi SW 3.5 mph - 0.00 in   Overcast
1:46 PM 75.0 °F 71.1 °F 87% 30.01 in 10.0 mi South 3.5 mph - 0.00 in   Overcast
1:53 PM 75.0 °F 71.1 °F 87% 30.00 in 10.0 mi Calm Calm - 0.00 in   Overcast
2:18 PM 75.0 °F 71.1 °F 87% 30.00 in 10.0 mi WNW 3.5 mph - N/A   Overcast
2:29 PM 75.0 °F 71.1 °F 87% 30.00 in 10.0 mi NW 3.5 mph - N/A   Overcast
2:53 PM 75.0 °F 71.1 °F 87% 29.98 in 10.0 mi Calm Calm - 0.00 in Rain Light Rain
3:53 PM 75.9 °F 71.1 °F 85% 29.96 in 10.0 mi Calm Calm - 0.00 in   Overcast
4:53 PM 77.0 °F 70.0 °F 79% 29.96 in 10.0 mi Calm Calm - N/A   Mostly Cloudy
5:53 PM 77.0 °F 71.1 °F 82% 29.96 in 10.0 mi Calm Calm - N/A   Mostly Cloudy
6:53 PM 77.0 °F 71.1 °F 82% 29.96 in 10.0 mi Calm Calm - N/A   Mostly Cloudy
7:53 PM 75.9 °F 71.1 °F 85% 29.94 in 10.0 mi Calm Calm - N/A   Partly Cloudy
8:53 PM 73.9 °F 72.0 °F 93% 29.95 in 10.0 mi NNW 3.5 mph - N/A   Partly Cloudy
9:09 PM 73.9 °F 72.0 °F 93% 29.96 in 10.0 mi North 4.6 mph - N/A   Mostly Cloudy
9:22 PM 73.9 °F 71.1 °F 91% 29.97 in 10.0 mi North 3.5 mph - N/A   Scattered Clouds
9:53 PM 73.0 °F 70.0 °F 90% 29.97 in 10.0 mi NNE 3.5 mph - N/A   Clear
10:53 PM 71.1 °F 69.1 °F 93% 29.99 in 10.0 mi Calm Calm - N/A   Clear
11:53 PM 69.1 °F 66.9 °F 93% 29.99 in 10.0 mi North 3.5 mph - N/A   Clear